Regional Weather Roundup
Issued by NWS

Home | Current Version | Previous Version | Graphics & Text | Print | Product List | Glossary On
Versions: 1 2 3 4 5 6 7 8 9 10 11 12 13 14 15 16 17 18 19 20 21 22 23 24 25 26 27 28 29 30 31 32 33 34 35 36 37 38 39 40 41 42 43 44 45 46 47 48 49 50
000
ASUS44 KMEG 230200
RWRTN
TENNESSEE HOURLY STATE WEATHER ROUNDUP
NATIONAL WEATHER SERVICE MEMPHIS TN
900 PM CDT WED OCT 22 2014

TNZ002-004-019-021-049-052-054-088>092-230300-
WEST TENNESSEE

CITY           SKY/WX    TMP DP  RH WIND       PRES   REMARKS
MEMPHIS INTL   CLEAR     57  44  62 NE7       30.19R
NWS MEMPHIS      N/A     51 N/A N/A MISG        N/A
JACKSON        CLEAR     49  44  83 CALM      30.20S
DYERSBURG      CLEAR     52  36  54 CALM      30.22R
UNION CITY     CLEAR     45  43  93 CALM      30.20R
PARIS          CLEAR     45  39  81 NE3       30.21F
LEXINGTON      CLEAR     45  43  93 CALM      30.20R
SAVANNAH       CLEAR     46  45  93 CALM      30.20R
$$

TNZ008-025-027-028-033-062-065-066-230300-
NORTH MIDDLE TENNESSEE

CITY           SKY/WX    TMP DP  RH WIND       PRES   REMARKS
NASHVILLE      CLEAR     51  42  71 NE6       30.21S
CLARKSVILLE    CLEAR     49  41  74 CALM      30.22S
COOKEVILLE     CLEAR     46  43  87 E7        30.22R
CROSSVILLE     CLEAR     44  37  76 NE7       30.22S
$$

TNZ061-075-076-078-094-096-097-230300-
SOUTH MIDDLE TENNESSEE

CITY           SKY/WX    TMP DP  RH WIND       PRES   REMARKS
TULLAHOMA      CLEAR     43  39  87 CALM      30.20S
WINCHESTER     CLEAR     46  41  81 N3        30.20R
MCMINNVILLE    CLEAR     48  43  81 CALM      30.20S
SHELBYVILLE    CLEAR     45  43  93 CALM      30.21S
$$

TNZ017-018-042-046-047-230300-
NORTHEAST TENNESSEE

CITY           SKY/WX    TMP DP  RH WIND       PRES   REMARKS
TRI CITIES     CLOUDY    48  41  76 NW6       30.21F
ELIZABETHTON   CLOUDY    45  39  81 W5        30.20F
$$

TNZ012-013-036-069-073-074-230300-
CENTRAL EAST TENNESSEE

CITY           SKY/WX    TMP DP  RH WIND       PRES   REMARKS
KNOXVILLE      PTCLDY    46  39  76 NE8       30.22S
OAK RIDGE      CLEAR     47  40  76 NE3       30.24S
GATLINBURG     CLOUDY    46  39  76 CALM      30.22S
MORRISTOWN     MOCLDY    46  39  76 CALM      30.23S
$$

TNZ083-085-099-230300-
SOUTHEAST TENNESSEE

CITY           SKY/WX    TMP DP  RH WIND       PRES   REMARKS
CHATTANOOGA    CLEAR     55  44  66 N15       30.19R
$$

SKY/WX REPORTED AS FAIR MEANS FEW OR NO CLOUDS BELOW
12 THOUSAND FEET.




USA.gov is the U.S. government's official web portal to all federal, state and local government web resources and services.